Regional Weather Roundup
Issued by NWS

Home | Current Version | Previous Version | Text Only | Print | Product List | Glossary Off
Versions: 1 2 3 4 5 6 7 8 9 10 11 12 13 14 15 16 17 18 19 20 21 22 23 24 25 26 27 28 29 30 31 32 33 34 35 36 37 38 39 40 41 42 43 44 45 46 47 48 49 50

000
ASUS44 KMEG 262300
RWRTN
TENNESSEE HOURLY STATE WEATHER ROUNDUP
NATIONAL WEATHER SERVICE MEMPHIS TN
500 PM CST MON JAN 26 2015

TNZ002-004-019-021-049-052-054-088>092-270000-
WEST TENNESSEE

CITY           SKY/WX    TMP DP  RH WIND       PRES   REMARKS
MEMPHIS INTL   PTCLDY    48  31  51 SW9       29.95F
NWS MEMPHIS      N/A     49 N/A N/A MISG        N/A
JACKSON        PTCLDY    41  29  62 SW3       29.94F
DYERSBURG      MOCLDY    43  23  45 CALM      29.96S
UNION CITY     CLOUDY    37  30  75 W8        29.93S WCI  31
PARIS          CLOUDY    36  27  69 W5        29.95F WCI  32
LEXINGTON      CLOUDY    41  28  60 NW5       29.95R
SAVANNAH       MOCLDY    43  28  56 W5        29.96F
$$

TNZ008-025-027-028-033-062-065-066-270000-
NORTH MIDDLE TENNESSEE

CITY           SKY/WX    TMP DP  RH WIND       PRES   REMARKS
NASHVILLE      CLOUDY    36  28  73 NW6       29.98R WCI  31
CLARKSVILLE    CLOUDY    37  27  67 W3        29.95S
COOKEVILLE     CLOUDY    32  28  86 NW5       29.93S WCI  27
CROSSVILLE     CLOUDY    28  25  88 W8        29.90R WCI  20
$$

TNZ061-075-076-078-094-096-097-270000-
SOUTH MIDDLE TENNESSEE

CITY           SKY/WX    TMP DP  RH WIND       PRES   REMARKS
FAYETTEVILLE     N/A     36  27  69 MISG      29.93F
TULLAHOMA      MOCLDY    34  27  75 CALM      29.93F
WINCHESTER     CLOUDY    36  28  75 W6        29.95S WCI  31
MCMINNVILLE    CLOUDY    32  28  86 NW3       29.95R
SHELBYVILLE    CLOUDY    36  28  75 CALM      29.96S
$$

TNZ017-018-042-046-047-270000-
NORTHEAST TENNESSEE

CITY           SKY/WX    TMP DP  RH WIND       PRES   REMARKS
TRI CITIES     FLURRIES  31  27  85 W12       29.83R WCI  22
ELIZABETHTON   LGT RAIN  28  27  93 W9        29.81R WCI  20
$$

TNZ012-013-036-069-073-074-270000-
CENTRAL EAST TENNESSEE

CITY           SKY/WX    TMP DP  RH WIND       PRES   REMARKS
KNOXVILLE      CLOUDY    32  27  81 W7        29.93R WCI  26
OAK RIDGE      CLOUDY    33  28  81 S6        29.95R WCI  28
GATLINBURG     CLOUDY    30  25  80 W5        29.92R WCI  25
MORRISTOWN     PTCLDY    30  27  86 W6        29.90R WCI  24
$$

TNZ083-085-099-270000-
SOUTHEAST TENNESSEE

CITY           SKY/WX    TMP DP  RH WIND       PRES   REMARKS
CHATTANOOGA    CLOUDY    37  27  67 NW7       29.96R WCI  32
$$

SKY/WX REPORTED AS FAIR MEANS FEW OR NO CLOUDS BELOW
12 THOUSAND FEET.



USA.gov is the U.S. government's official web portal to all federal, state and local government web resources and services.